This is the latest recevied weather packets stored in our database for station/object W2DRT. If no packets are shown the sender has not sent any weather packets the latest 10 day(s).
| Time | Temp. | Humidity | Pressure | Rain* | Wind** | Luminosity | Snow |
|---|---|---|---|---|---|---|---|
| 1777378063 | 8.33° C | 80% | 1023.4 hPa | - | - | - | - |
| 1777376257 | 6.67° C | 82% | 1023.4 hPa | - | - | - | - |
| 1777375652 | 6.11° C | 82% | 1022.8 hPa | - | - | - | - |
| 1777375050 | 5.56° C | 83% | 1023.1 hPa | - | - | - | - |
| 1777372641 | 4.44° C | 83% | 1023.1 hPa | - | - | - | - |
| 1777372039 | 4.44° C | 82% | 1022.8 hPa | - | - | - | - |
| 1777371438 | 4.44° C | 82% | 1022.8 hPa | - | - | - | - |
| 1777370836 | 4.44° C | 82% | 1023.1 hPa | - | - | - | - |
| 1777370234 | 4.44° C | 82% | 1023.1 hPa | - | - | - | - |
| 1777369632 | 4.44° C | 82% | 1023.1 hPa | - | - | - | - |
| 1777369028 | 4.44° C | 82% | 1023.1 hPa | - | - | - | - |
| 1777368427 | 4.44° C | 82% | 1023.4 hPa | - | - | - | - |
| 1777367827 | 5° C | 82% | 1023.1 hPa | - | - | - | - |
| 1777367224 | 5° C | 81% | 1023.8 hPa | - | - | - | - |
| 1777366016 | 5° C | 80% | 1023.8 hPa | - | - | - | - |
| 1777365414 | 5° C | 80% | 1023.8 hPa | - | - | - | - |
| 1777364812 | 5° C | 79% | 1023.8 hPa | - | - | - | - |
| 1777364210 | 5.56° C | 79% | 1023.8 hPa | - | - | - | - |
| 1777363609 | 5.56° C | 79% | 1023.8 hPa | - | - | - | - |
| 1777363003 | 5.56° C | 79% | 1023.8 hPa | - | - | - | - |
| 1777362404 | 5.56° C | 79% | 1023.4 hPa | - | - | - | - |
| 1777361798 | 5.56° C | 79% | 1023.4 hPa | - | - | - | - |
| 1777361198 | 5.56° C | 77% | 1023.4 hPa | - | - | - | - |
| 1777360593 | 6.11° C | 77% | 1023.4 hPa | - | - | - | - |
| 1777359391 | 6.11° C | 77% | 1023.8 hPa | - | - | - | - |
* Rain since midnight (hover to see other rain measurements)
** Current wind speed in m/s (hover to see current wind gust speed)